Showing default

TRANSIT 4A, 116

Orbit data source: Space-Track

TRANSIT 4A, 116 is a payload satellite owned by USN BuWeps (US) in LEO that was launched on Thu, 29 Jun 1961 UTC via a THOR ABLESTAR launch vehicle from the Air Force Eastern Test Range (AFETR). Payloads include a variety of satellites, spacecraft, and rockets equipped with specific instruments for various scientific and technological missions. These include communications satellites like Starlink; space stations such as the ISS; scientific satellites like the Hubble; Earth observation satellites from companies like Planet Labs, Umbra, and HawkEye 360; GPS; miniature CubeSats for education and research; and military/defense satellites.

Loading next visibility...
TRANSIT 4A details
Identifier
116, 1961-015A
Orbit
LEO
Last TLE update17 hours ago
Origin
Flag of USUSN BuWeps (US)
ManufacturerAPL
MissionDefense Navigation
Bus & MotorTRANSIT 4, Unknown motor
Mass78 kg wet, 78 kg dry
Launch date (UTC)
1961-06-29 (63 years ago)
Launch vehicle
THOR ABLESTAR
Launch site
Air Force Eastern Test Range (AFETR)
Object type
Payload
Rocket body
Debris
Shape & HBRCyl, 1.09 m
Radar Cross Section1.143 m², Medium (>0.1 m² and < 1m²)

Expand to show TLE details & history

TLE from 17 hours ago
0 TRANSIT 4A
1 00116U 61015A   24355.82011948  .00000142  00000-0  16645-3 0  9995
2 00116  66.8083 140.2616 0081333 292.2585  66.9883 13.92165833221064
Epoch: 2024-12-20T19:40Z
Definitive object data (Epoch: 2024-12-20T19:40:58.323Z)
Latitude-0.00004°
Longitude115.13842°
Altitude900.33 km
Speed7.414 km/s
True Right ascension09h 21m 02s
True Declination0° 00' 00"
Sunlit
Object was in full shadow at TLE epoch
Visualization TLE readout
Latitude-46.27237°
Longitude86.94896°
Altitude881.169 km
Speed7.44 km/s
Apparent Right ascension03h 40m 11s
Apparent Declination-60° 37' 57"
Sunlit
Object is in daylight
Visualization observer readout
Local Sidereal Time11:42:38
Azimuth219.711° SW
Elevation-48.655°
Doppler factor1
Orbital elements
Apogee altitude978.795 km
Perigee altitude860.089 km
Semi-major axis7,297.579 km
Eccentricity0.0081333
Inclination66.8083°
RAAN140.2616°
Arg. of periapsis292.2585°
True anomaly67.84953°
Mean anomaly66.9883°
Eccentric anomaly67.41858°
Mean motion3.48157 °/min
BSTAR0.00016645
Orbital period103.4 mins
Loading maneuver chart data...

TRANSIT 4A Visibility forecast

Observer location: undefined°, undefined

Span
Click to sort rows by Start time (UTC) header in descending order
Start Az.
Max El. time (UTC)
Max El. Az.
Max El.
End time (UTC)
End Az.
9 mins2024-12-21 13:06:48.041Z266.801° W2024-12-21 13:11:48.041Z321.379° NNW20.51°2024-12-21 13:15:48.041Z3.135° NNE
5 mins2024-12-21 18:38:48.041Z18.852° NNE2024-12-21 18:40:48.041Z40.061° NE15.198°2024-12-21 18:43:48.041Z69.938° E
10 mins2024-12-21 20:23:48.041Z338.365° N2024-12-21 20:27:48.041Z33.253° NE43.071°2024-12-21 20:33:48.041Z142.633° SSE
7 mins2024-12-21 22:10:48.041Z289.382° WNW2024-12-21 22:13:48.041Z257.035° W17.942°2024-12-21 22:17:48.041Z215.951° SW
5 mins2024-12-22 09:45:48.041Z124.141° SE2024-12-22 09:47:48.041Z101.895° ESE15.636°2024-12-22 09:50:48.041Z70.891° E
10 mins2024-12-22 11:28:48.041Z215.267° SW2024-12-22 11:32:48.041Z255.026° W43.589°2024-12-22 11:38:48.041Z25.728° NE
|